Find Starlink 34406

NORAD ID: 64705 Int'l Des: 2025-142 Owner: SPXS Country: US Constellation: starlink operational
LEOCIRCULAR

Current View

Loading 3D Globe...

About Starlink 34406

Starlink 34406 (NORAD 64705) is a starlink constellation satellite (v2 mini) launched Jun 28, 2025 by SPXS of US. It operates in LEO, CIRCULAR orbit with a mass of 575.00 kg.

About Starlink 34406

Description loading...

Upcoming Passes

Passes for default location (London). Set your location on the main map for personalized predictions.

Altitude History

Loading altitude history...

Two-Line Element Set

1 64705U 25142K 26163.85549037 .00008479 00000-0 71707-3 0 9998
2 64705 70.0020 74.5899 0003295 279.4718 80.6068 14.98352703 53853
Epoch: Jun 12, 2026 • Age: 14 hours

Current Status

Altitude 574.4 km
Velocity 7.57 km/s
Sub-Earth Point 11.90°N, 164.35°W
Launch Date Jun 28, 2025
Age 0.9 years
Type internet

Technical Details

Classification Payload
Mass 575.00 kg
Dry Mass 530.00 kg
Total Mass 575.00 kg
Length 0.30 m
Diameter 4.10 m
Span 29.00 m
Shape Box + pan
Manufacturer SPXS
Bus Type Starlink V2MO
Phase Status In Orbit
Owner/State SPXS/US

Most Searched